Back to catalog

FIREFLY-2

AliveScienceSSO
NORAD 62704·PAYLOAD·🇮🇳 India

Launched Jan 14, 2025 from Vandenberg Space Force Base

Loading…

Next Passes (next 24 hours)

TLE

FreshSource: Space-Track

Epoch: Sep 14, 2026, 15:01 UTC

1 62704U 25009CZ  26257.62579815  .00000961  00000-0  98475-4 0  9993
2 62704  97.6961 333.6066 0007812 131.6247 228.5643 14.92702334 90664

Track FIREFLY-2 in real time with AllMySat

Download on the App Store